CZ-6A DEB, 54623

Orbit data source: Space-Track

CZ-6A DEB, 54623 is space debris in SSO originally from a launch on Fri, 11 Nov 2022 UTC launched from the Taiyaun Space Center, China (TSC). Debris objects in space refer to the collection of defunct objects orbiting the Earth. Examples of debris include non-operational satellites, rocket bodies, and fragments generated from explosions, collisions, or faulty payload assembly.

Loading next visibility...
Identifier
54623, 2022-151NZ
Orbit
SSO
Country
Flag of CNCN / PRC
Related business
Manufacturer
SAST
Mission
Spacecraft
Bus & Motor
Unknown
Mass
Unknown
Launch date (UTC)
2022-11-11 (4 years ago)
Launch vehicle
Unknown
Launch site
Taiyaun Space Center, China (TSC)
Object type
Payload
Rocket body
Debris
Shape & HBR
Unknown shape, 0.2 m
Radar Cross Section
Medium (>0.1 m² and <1 m²)

Expand to show TLE details & history
Last TLE update: 2 days ago

TLE from 2 days ago
0 CZ-6A DEB
1 54623U 22151NZ  26262.27365976  .00000451  00000-0  26379-3 0  9994
2 54623  98.8470 265.7999 0043952  65.5877 294.9872 14.12805402197180
Epoch: 2026-09-19T06:34Z
TLE epoch observation values (Epoch: 2026-09-19T06:34:04.203Z)
Latitude
-0.00002°
Longitude
169.09784°
Altitude
839.381 km
Speed
7.44 km/s
True Right ascension
17h 43m 11s
True Declination
0° 00' 00"
Sunlit
Object was in daylight at epoch
Visualization orbit readout
Latitude
Unknown
Longitude
Unknown
Altitude
Unknown
Speed
Unknown
Apparent Right ascension
Unknown
Apparent Declination
Unknown
Sunlit
N/A
Visualization observer readout
Local Sidereal Time
03:14:33
Azimuth
Unknown
Elevation
Unknown
Doppler factor
Unknown
Orbital elements
Apogee altitude
878.718 km
Perigee altitude
815.207 km
Semi-major axis
7,225.099 km
Eccentricity
0.0044
Inclination
98.847°
RAAN
265.7999°
Arg. of periapsis
65.5877°
True anomaly
294.52963°
Mean anomaly
294.9872°
Eccentric anomaly
294.75852°
Mean motion
3.53409 °/min
Orbital period
101.87 mins
BSTAR
0.00026379
Loading maneuver chart data...
Computing Atmospheric mass density...
Loading historical data...
Loading historical data...
Loading historical data...
Loading historical data...
Loading historical data...
Loading historical data...
Loading historical data...

Documentation

Showing up to 5 results
|